Overview Statistics Trail Chart Weather Telemetry Raw packets
 

This is the latest recevied weather packets stored in our database for station/object W0WC. If no packets are shown the sender has not sent any weather packets the latest 10 day(s).

<< 77 78 79 80 81 82 83 >>
Time Temp. Humidity Pressure Rain* Wind** Luminosity Snow
1788132377 37.78° C 30% 1013.7 hPa 0 mm - 152 W/m² -
1788132073 37.78° C 29% 1013.8 hPa 0 mm - 158 W/m² -
1788131769 37.78° C 29% 1013.7 hPa 0 mm - 178 W/m² -
1788131471 37.78° C 29% 1013.8 hPa 0 mm - 204 W/m² -
1788131164 37.78° C 28% 1013.7 hPa 0 mm - 214 W/m² -
1788130858 38.33° C 29% 1014 hPa 0 mm - 238 W/m² -
1788130554 37.78° C 30% 1013.7 hPa 0 mm - 247 W/m² -
1788130253 37.78° C 30% 1013.6 hPa 0 mm - 255 W/m² -
1788129952 37.78° C 30% 1013.6 hPa 0 mm - 272 W/m² -
1788129649 37.22° C 31% 1013.6 hPa 0 mm - 283 W/m² -
1788129346 37.22° C 31% 1013.7 hPa 0 mm - 251 W/m² -
1788129045 37.78° C 30% 1013.8 hPa 0 mm - 209 W/m² -
1788128739 37.78° C 30% 1013.7 hPa 0 mm - 211 W/m² -
1788128436 38.33° C 29% 1013.9 hPa 0 mm - 288 W/m² -
1788128132 38.33° C 29% 1013.7 hPa 0 mm - 361 W/m² -
1788127828 38.33° C 30% 1013.7 hPa 0 mm - 372 W/m² -
1788127527 38.33° C 30% 1013.8 hPa 0 mm - 381 W/m² -
1788127225 38.33° C 30% 1013.9 hPa 0 mm - 378 W/m² -
1788126920 38.33° C 30% 1013.9 hPa 0 mm - 404 W/m² -
1788126614 38.33° C 30% 1013.8 hPa 0 mm - 411 W/m² -
1788126310 38.33° C 29% 1014 hPa 0 mm - 413 W/m² -
1788126004 38.33° C 30% 1013.9 hPa 0 mm - 430 W/m² -
1788125699 38.33° C 30% 1014 hPa 0 mm - 417 W/m² -
1788125394 38.89° C 29% 1014 hPa 0 mm - 446 W/m² -
1788125090 38.89° C 29% 1013.9 hPa 0 mm - 467 W/m² -

* Rain latest hour (hover to see other rain measurements)
** Current wind speed in m/s (hover to see current wind gust speed)